Regional Weather Roundup
Issued by NWS Albany, NY

Home | Current Version | Previous Version | Text Only | Print | Product List | Glossary On
Versions: 1 2 3 4 5 6 7 8 9 10 11 12 13 14 15 16 17 18 19 20 21 22 23 24 25 26 27 28 29 30 31 32 33 34 35 36 37 38 39 40 41 42 43 44 45 46 47 48 49 50
000
ASUS41 KALY 311110
RWRALY

NEW YORK STATE HOURLY WEATHER ROUNDUP
NATIONAL WEATHER SERVICE ALBANY NY
700 AM EDT FRI JUL 31 2015

NOTE: "FAIR" INDICATES FEW OR NO CLOUDS BELOW 12,000 FEET WITH NO
SIGNIFICANT WEATHER AND/OR NO OBSTRUCTIONS TO VISIBILITY.

NYZ032-033-038>043-046>054-057>066-NYZ062>081-311200-
EAST


CITY           SKY/WX    TMP DP  RH WIND       PRES   REMARKS
ALBANY         MOSUNNY   70  59  68 W10       29.83R
GLENS FALLS    SUNNY     63  60  90 CALM      29.80S
POUGHKEEPSIE   SUNNY     65  63  93 CALM      29.85R
NEWBURGH       SUNNY     64  63  94 W6        29.88R
MONTGOMERY     SUNNY     64  61  90 S6        29.87R
WHITE PLAINS   SUNNY     70  64  81 NW6       29.87R
ISLIP          PTSUNNY   72  68  87 NW5       29.84R
NEW YORK CITY  MOSUNNY   75  60  59 NW8       29.86R
CENTRAL PARK   SUNNY     73  62  68 CALM      29.90R
$$

NYZ005>009-017-018-044>046-055-056-311200-
CENTRAL


CITY           SKY/WX    TMP DP  RH WIND       PRES   REMARKS
FULTON         SUNNY     67  58  72 W6        29.87R
SYRACUSE       MOSUNNY   68  62  81 W10       29.86R
ROME           SUNNY     61  59  93 CALM      29.87R
ELMIRA         CLEAR     61  59  93 SW9       29.91R
BINGHAMTON     SUNNY     62  56  80 W8        29.92R
MONTICELLO     SUNNY     59  57  94 CALM      29.93R
$$

NYZ026>034-041>043-311200-
NORTH


CITY           SKY/WX    TMP DP  RH WIND       PRES   REMARKS
WATERTOWN      SUNNY     67  57  70 W6        29.83R
FORT DRUM      NOT AVBL
MASSENA        CLOUDY    66  57  72 W6        29.77R
SARANAC LAKE   SUNNY     61  56  83 SW8       29.81R
PLATTSBURGH    SUNNY     65  59  81 CALM      29.75R
$$

NYZ001>004-010>016-019>021-311200-
WEST


CITY           SKY/WX    TMP DP  RH WIND       PRES   REMARKS
NIAGARA FALLS  PTCLDY    63  56  78 CALM      29.90R
BUFFALO        PTCLDY    65  59  81 CALM      29.91R
DUNKIRK        CLEAR     64  62  93 S6        29.93R
JAMESTOWN      CLEAR     63  57  82 CALM      29.98R
WELLSVILLE     CLEAR     62  57  83 MISG      29.99R
ROCHESTER      CLEAR     65  59  81 W6        29.90R
PENN YAN       CLEAR     65  60  84 S6        29.91R
$$

             KEY
       WCI = WIND CHILL INDEX
       VSB = VISIBILITY
       HX  = HEAT INDEX
$$



USA.gov is the U.S. government's official web portal to all federal, state and local government web resources and services.